Wind_Speed
25 21 16 18 19 20 19 17 18 19 28 34 35 38 21 13 12 12 4 4 4 4 3 5 10 13 15 19 23 28 31 31 23 21 22 25 28 30 32 34 38 38 36 32
23 19 19 22 23 20 20 19 18 23 29 27 30 26 19 16 13 5 7 10 10 11 4 3 9 14 15 19 19 26 30 30 25 26 27 29 30 33 36 38 37 36 35 36
21 21 24 26 26 23 20 21 23 27 33 30 26 22 25 20 17 10 14 15 15 14 9 7 11 14 15 20 22 25 28 29 27 30 32 33 35 39 40 38 36 37 38 39
22 22 25 28 26 24 21 22 31 31 32 32 30 24 29 26 21 17 21 16 11 12 13 10 12 15 16 20 23 25 28 32 32 36 40 38 40 44 42 38 36 37 40 42
20 22 25 28 27 28 22 30 32 33 34 34 33 32 24 28 23 22 22 17 16 16 17 14 10 14 16 20 24 25 30 33 36 38 42 40 43 44 41 38 37 38 40 43
26 25 25 25 30 30 29 31 31 33 34 36 35 37 23 24 23 25 24 19 22 20 21 19 17 16 17 22 28 31 36 35 37 39 42 44 47 42 39 39 42 43 43 43
26 25 25 25 28 29 27 31 33 33 32 31 32 34 33 28 29 27 27 28 27 29 32 30 23 21 22 25 29 32 33 36 38 38 43 46 44 43 40 40 42 39 39 40
29 26 25 24 24 28 29 33 35 36 32 31 31 35 34 39 35 32 35 35 33 33 26 21 24 23 22 27 32 28 32 37 36 39 40 41 44 43 41 42 40 39 42 46
29 29 29 28 27 28 31 32 31 34 33 31 32 32 31 33 31 30 35 33 30 24 17 13 18 21 26 31 30 28 32 32 28 30 40 43 47 45 43 42 39 43 47 50
30 31 31 33 34 34 35 36 35 34 34 33 31 28 25 26 25 24 28 26 20 21 20 20 18 23 28 29 26 30 30 27 28 36 40 47 48 45 41 40 43 47 48 49
27 31 25 37 37 36 38 36 36 35 37 35 33 29 19 23 20 22 26 24 21 23 23 16 18 23 28 26 27 33 35 23 32 38 45 47 46 41 40 42 44 48 47 47
30 30 24 32 34 38 40 39 39 40 39 37 35 31 20 20 22 21 21 27 26 24 22 21 24 26 27 27 28 29 30 34 32 44 46 44 41 39 40 42 46 47 45 45
34 35 32 26 31 34 38 40 42 42 41 40 36 33 20 22 22 21 21 22 21 24 23 23 25 23 25 25 30 31 31 32 38 40 44 41 38 39 43 44 48 46 44 44
33 35 37 34 30 34 35 36 40 44 46 42 38 32 25 22 22 19 19 22 23 20 22 26 28 28 24 29 27 31 33 33 35 38 46 41 38 41 44 47 48 46 44 45
39 37 36 36 37 37 37 36 35 39 43 45 37 35 26 21 21 23 17 20 23 22 25 29 30 26 26 26 26 30 32 37 40 42 44 38 40 43 45 48 48 46 44 47
45 44 42 41 38 39 41 36 35 39 39 40 41 38 32 22 22 25 21 19 22 22 24 27 29 25 27 25 30 33 35 40 41 41 36 37 41 44 46 48 46 44 46 49
47 49 48 45 44 41 36 35 36 36 37 36 39 37 38 30 25 25 26 23 23 21 25 28 28 26 27 30 33 32 35 38 35 33 34 38 43 46 47 47 45 44 48 49
48 48 51 51 48 48 33 35 33 35 39 38 38 38 42 37 36 33 30 28 22 25 27 31 29 27 30 32 33 33 35 38 37 34 36 39 44 47 48 47 45 46 47 49
45 48 51 52 53 49 37 38 38 39 36 37 37 37 41 46 39 34 34 30 25 23 22 28 32 33 35 36 39 40 39 40 40 36 37 40 44 48 49 46 45 46 48 48
45 48 49 49 53 51 45 41 43 45 37 30 32 38 36 42 48 42 41 37 31 31 34 36 34 35 35 40 42 44 41 40 42 38 39 41 46 48 48 45 44 46 48 45
41 44 46 49 53 53 49 48 52 47 33 31 31 33 35 33 38 44 48 46 43 37 37 37 38 37 37 38 41 43 35 38 39 38 40 43 47 48 46 44 45 47 45 44
40 41 43 46 47 48 51 56 56 48 46 46 39 36 36 31 29 32 35 39 41 45 46 44 41 41 38 38 40 32 32 36 39 38 41 45 47 47 45 43 45 44 43 46
45 47 47 50 47 41 49 52 55 54 50 50 48 41 40 40 39 36 30 33 36 40 43 44 41 38 39 42 39 35 36 35 34 36 42 45 45 45 42 43 44 44 44 44
45 49 55 56 48 51 51 52 53 55 54 52 48 43 40 40 39 41 35 33 35 39 38 37 37 39 44 29 29 28 28 29 33 36 42 44 43 41 40 43 43 41 41 39
51 54 55 58 56 55 53 55 58 56 53 48 48 48 43 39 36 36 36 30 34 36 35 38 36 21 26 30 25 25 25 29 33 38 41 41 38 38 40 42 39 38 38 39
51 51 53 54 54 54 49 52 57 56 52 51 49 47 42 37 34 36 36 34 36 32 35 38 41 36 23 21 23 23 26 30 35 38 39 35 35 38 39 37 35 36 37 40
Wind_Direction
248 246 243 239 238 237 231 233 237 229 219 233 242 249 245 243 235 234 271 319 301 273 290 39 13 353 358 358 359 346 345 342 345 336 331 323 318 314 313 310 308 309 310 306
246 244 237 239 239 241 235 234 231 228 227 236 231 247 217 229 248 231 252 273 288 297 294 333 344 332 346 351 339 335 335 340 339 334 328 320 318 316 314 314 315 311 307 307
238 234 230 234 239 238 233 230 220 223 233 246 239 240 222 224 234 219 247 265 269 272 272 286 306 302 328 338 328 326 327 334 331 334 328 323 321 322 318 316 313 309 306 303
235 237 232 233 238 239 234 221 216 229 244 244 251 246 235 237 242 233 239 260 276 284 263 265 280 294 313 318 316 315 319 328 323 323 328 327 327 324 319 316 313 307 304 300
236 236 233 233 231 233 225 223 226 234 242 243 242 256 250 249 241 243 247 260 268 274 282 286 287 295 290 301 302 304 316 318 323 315 320 322 325 322 316 311 309 308 309 306
234 234 237 234 235 239 231 238 236 235 241 245 246 253 259 254 251 251 255 260 256 267 283 288 288 291 293 295 298 304 315 324 319 315 320 321 322 321 311 307 307 307 307 310
238 240 241 240 241 242 239 242 247 246 247 254 250 254 264 253 252 258 262 268 269 279 287 287 282 283 288 288 296 311 322 320 317 314 321 323 323 321 313 311 314 310 310 314
235 237 240 239 241 245 242 239 243 251 253 255 254 252 254 258 255 260 268 275 287 292 288 274 268 283 287 284 289 313 312 312 316 313 318 326 329 323 317 317 315 318 317 317
235 230 232 230 232 237 241 245 247 253 257 258 258 264 259 262 266 259 265 275 278 281 281 262 260 270 273 282 299 313 307 317 317 316 320 328 328 324 321 319 317 320 321 320
251 240 235 236 228 229 234 238 243 251 255 255 257 253 256 260 262 260 257 265 272 262 256 261 279 287 287 299 307 310 317 311 311 319 325 330 329 326 323 323 324 321 322 320
254 256 239 240 241 238 239 237 239 245 251 255 258 261 258 262 262 261 250 248 254 259 262 277 285 291 300 304 300 305 314 297 315 327 328 330 328 325 324 323 322 321 321 319
251 253 245 256 249 244 243 245 241 243 248 252 258 258 259 272 262 264 265 263 259 268 277 285 287 296 300 303 304 305 314 316 313 325 323 327 324 322 319 321 321 323 322 323
247 249 249 241 246 249 250 248 250 251 252 254 258 264 265 263 271 260 266 273 276 276 279 282 289 295 308 304 308 313 315 324 324 323 327 326 320 317 319 321 325 325 323 324
255 253 252 242 238 245 252 253 252 253 255 260 260 265 267 264 264 263 270 269 269 280 289 295 304 302 297 297 308 312 319 320 319 322 328 320 316 318 321 325 327 324 324 324
263 260 257 252 242 241 241 249 253 255 258 261 267 260 260 255 262 263 264 264 264 273 283 292 297 300 292 285 311 314 324 324 323 319 319 315 316 321 323 327 327 325 324 324
259 260 262 261 255 250 243 238 243 255 259 263 264 266 264 252 259 264 273 278 277 273 280 287 287 289 288 306 309 314 317 319 321 316 314 314 318 323 325 328 327 322 322 324
249 255 256 258 259 258 255 246 242 242 251 260 262 269 267 264 266 265 270 277 290 276 273 284 285 286 296 304 308 316 322 323 320 314 314 317 321 325 326 328 325 321 324 323
245 250 255 258 260 260 252 260 257 247 242 251 260 264 265 263 266 271 275 277 290 288 276 275 276 278 290 306 314 317 319 324 318 314 315 318 320 325 328 327 323 324 324 322
246 246 250 254 258 260 252 254 258 259 244 246 253 260 263 263 263 267 276 281 281 275 285 283 279 283 289 302 310 312 311 315 317 310 312 316 322 326 328 326 324 324 323 323
247 247 246 250 254 257 257 256 255 258 253 240 257 254 262 264 267 270 272 277 276 271 277 282 285 289 297 296 307 309 303 304 311 308 311 318 324 326 326 324 324 324 323 325
252 250 251 253 254 253 256 260 264 259 258 255 254 260 254 262 265 267 266 268 274 273 270 276 283 287 298 301 308 302 301 302 309 307 313 319 323 326 325 323 324 324 325 326
254 260 259 255 254 254 256 256 256 259 258 256 252 251 255 247 264 270 270 268 266 268 272 276 279 291 295 302 303 302 298 300 307 308 314 319 323 324 322 323 324 324 327 327
261 264 262 262 263 257 254 255 254 253 252 250 250 249 251 251 256 264 272 265 265 269 272 276 283 289 296 296 296 287 295 300 303 310 316 319 323 322 322 324 324 327 328 331
265 270 273 273 270 265 259 252 252 249 248 248 249 247 247 250 256 259 269 267 263 266 269 279 284 290 294 289 296 291 293 300 306 314 317 320 322 322 325 325 324 328 330 330
265 269 270 270 267 264 258 251 243 240 242 243 244 246 246 248 251 255 263 256 255 260 273 274 264 315 298 286 284 290 298 304 312 316 319 320 322 325 325 325 329 332 331 332
266 269 269 268 264 260 252 245 239 234 235 238 239 242 246 249 250 249 252 253 256 258 258 266 273 293 283 284 289 297 305 312 316 318 318 322 324 326 326 328 333 334 335 335
Height
5869 5873 5876 5875 5876 5877 5878 5879 5881 5882 5881 5881 5884 5885 5891 5893 5893 5893 5893 5894 5897 5898 5900 5899 5899 5899 5896 5893 5890 5892 5891 5889 5886 5884 5881 5879 5876 5873 5868 5863 5858 5852 5848 5844
5865 5869 5870 5871 5872 5873 5875 5877 5878 5878 5877 5878 5880 5883 5889 5889 5890 5891 5892 5892 5892 5894 5894 5895 5896 5896 5893 5890 5890 5890 5888 5885 5882 5880 5877 5874 5871 5867 5861 5855 5850 5847 5841 5837
5859 5863 5863 5865 5867 5870 5872 5874 5875 5876 5873 5874 5879 5882 5885 5886 5887 5888 5890 5890 5889 5890 5891 5892 5892 5891 5889 5887 5887 5886 5883 5881 5879 5875 5872 5869 5864 5858 5852 5848 5843 5839 5834 5830
5854 5856 5858 5860 5864 5867 5870 5871 5870 5871 5870 5873 5875 5879 5881 5883 5884 5885 5885 5885 5886 5886 5887 5887 5887 5886 5884 5883 5883 5881 5878 5875 5872 5869 5866 5860 5854 5849 5845 5841 5836 5832 5828 5824
5852 5851 5852 5855 5858 5859 5866 5863 5864 5866 5866 5868 5871 5871 5879 5878 5880 5880 5881 5882 5882 5883 5883 5883 5882 5881 5880 5880 5878 5876 5874 5870 5867 5863 5859 5855 5850 5845 5839 5835 5832 5827 5822 5817
5846 5845 5848 5851 5851 5855 5857 5858 5861 5862 5863 5864 5868 5867 5872 5874 5875 5876 5876 5878 5878 5879 5879 5879 5878 5877 5876 5875 5873 5872 5870 5866 5862 5859 5855 5849 5844 5839 5834 5830 5826 5820 5815 5808
5841 5842 5844 5847 5849 5851 5854 5854 5854 5857 5859 5861 5864 5864 5865 5868 5869 5871 5871 5871 5873 5874 5873 5874 5873 5873 5872 5871 5870 5868 5864 5861 5857 5853 5849 5845 5839 5834 5829 5824 5818 5812 5807 5800
5834 5839 5840 5844 5845 5846 5847 5848 5850 5849 5853 5855 5856 5855 5860 5860 5864 5866 5864 5864 5864 5866 5865 5866 5867 5867 5867 5866 5864 5862 5859 5856 5852 5848 5845 5840 5834 5829 5823 5817 5811 5805 5799 5792
5828 5832 5831 5835 5839 5839 5840 5842 5846 5845 5847 5849 5850 5852 5855 5856 5857 5859 5859 5859 5860 5860 5860 5860 5861 5862 5861 5859 5859 5856 5853 5850 5846 5843 5839 5833 5827 5821 5815 5809 5803 5796 5789 5782
5824 5827 5827 5828 5830 5832 5833 5837 5839 5840 5841 5841 5843 5847 5850 5850 5851 5853 5854 5853 5855 5855 5855 5856 5857 5857 5855 5854 5852 5851 5849 5845 5841 5837 5832 5824 5817 5811 5805 5799 5793 5788 5781 5775
5817 5820 5826 5822 5825 5829 5828 5830 5833 5835 5835 5835 5838 5842 5848 5845 5846 5848 5849 5851 5851 5851 5851 5851 5851 5851 5849 5848 5847 5845 5842 5838 5834 5829 5822 5815 5808 5803 5796 5792 5788 5782 5775 5767
5809 5812 5819 5819 5820 5821 5822 5823 5825 5825 5829 5830 5832 5836 5842 5842 5841 5842 5844 5845 5846 5847 5847 5846 5846 5846 5844 5842 5840 5838 5835 5831 5825 5821 5815 5807 5801 5796 5793 5788 5782 5774 5766 5757
5801 5803 5809 5814 5815 5814 5815 5818 5819 5821 5822 5823 5827 5831 5838 5837 5837 5836 5837 5838 5840 5840 5840 5840 5840 5839 5837 5835 5834 5832 5828 5823 5820 5815 5808 5801 5797 5793 5788 5781 5773 5765 5756 5749
5793 5796 5798 5804 5806 5807 5809 5812 5813 5814 5813 5817 5820 5824 5829 5831 5832 5831 5831 5832 5833 5833 5833 5833 5832 5832 5831 5829 5827 5825 5821 5817 5812 5807 5802 5797 5792 5787 5780 5772 5764 5756 5748 5741
5785 5787 5789 5791 5795 5797 5801 5805 5807 5807 5809 5809 5816 5815 5821 5824 5825 5825 5825 5825 5827 5828 5828 5827 5826 5825 5825 5821 5821 5818 5815 5810 5806 5801 5795 5791 5786 5780 5772 5764 5756 5748 5740 5734
5775 5777 5779 5781 5785 5788 5790 5796 5800 5801 5803 5803 5806 5807 5813 5816 5817 5820 5820 5820 5821 5822 5823 5822 5819 5820 5816 5815 5815 5812 5808 5804 5798 5793 5789 5785 5779 5771 5763 5756 5748 5740 5733 5725
5765 5765 5768 5770 5774 5778 5782 5787 5789 5792 5795 5797 5798 5804 5806 5807 5810 5813 5815 5815 5816 5816 5816 5815 5814 5813 5812 5811 5809 5805 5801 5796 5791 5787 5783 5777 5771 5764 5756 5748 5740 5733 5726 5718
5753 5755 5757 5758 5763 5766 5777 5778 5780 5782 5786 5789 5790 5794 5798 5799 5801 5804 5807 5809 5810 5810 5810 5809 5806 5807 5806 5804 5801 5798 5794 5790 5785 5780 5775 5770 5764 5757 5748 5740 5733 5726 5718 5710
5742 5745 5746 5748 5750 5756 5762 5768 5771 5772 5776 5781 5782 5787 5789 5792 5793 5795 5799 5802 5804 5803 5803 5802 5801 5801 5799 5798 5795 5791 5788 5784 5780 5774 5769 5763 5757 5749 5741 5734 5726 5719 5710 5702
5729 5732 5735 5741 5741 5744 5752 5756 5760 5761 5766 5776 5777 5779 5782 5784 5785 5789 5791 5793 5796 5796 5795 5794 5794 5794 5792 5790 5786 5784 5780 5777 5773 5768 5763 5756 5749 5742 5734 5726 5718 5710 5703 5695
5716 5719 5725 5728 5730 5738 5743 5746 5746 5754 5767 5765 5767 5769 5772 5775 5777 5779 5782 5785 5787 5787 5787 5786 5786 5785 5783 5779 5776 5774 5773 5771 5766 5761 5756 5749 5742 5735 5727 5719 5711 5703 5695 5688
5705 5706 5709 5712 5718 5728 5734 5733 5737 5746 5749 5751 5757 5760 5764 5766 5768 5770 5772 5773 5775 5777 5777 5778 5777 5776 5775 5772 5771 5768 5765 5762 5759 5754 5749 5743 5735 5728 5720 5712 5704 5697 5689 5681
5691 5693 5697 5698 5708 5721 5717 5719 5723 5728 5734 5738 5741 5749 5753 5757 5759 5762 5765 5764 5765 5767 5769 5770 5771 5770 5768 5768 5763 5762 5759 5755 5751 5747 5743 5736 5728 5721 5713 5706 5698 5691 5683 5676
5676 5677 5679 5681 5704 5699 5702 5706 5709 5715 5719 5725 5731 5736 5742 5746 5750 5754 5755 5756 5758 5759 5761 5764 5765 5764 5762 5762 5758 5754 5751 5748 5746 5740 5736 5729 5722 5714 5708 5700 5693 5686 5679 5671
5667 5665 5664 5672 5681 5680 5687 5689 5693 5698 5705 5712 5719 5724 5730 5736 5741 5745 5746 5749 5750 5753 5756 5755 5751 5754 5755 5754 5751 5748 5745 5742 5739 5734 5728 5723 5716 5709 5702 5695 5688 5682 5675 5667
5653 5651 5651 5658 5660 5663 5671 5671 5676 5685 5693 5699 5705 5712 5719 5725 5731 5733 5736 5740 5743 5746 5746 5747 5748 5749 5750 5749 5745 5742 5739 5737 5732 5728 5723 5717 5710 5704 5697 5691 5685 5678 5670 5661